New Roads False River Regiona, LA

7:09 AM CDT on May 20, 2018 (GMT -0500)
False River

Weather History for KHZR - April, 2014

Change the Weather History Date:

Monday, April 14, 2014

  Actual Average (KBTR) Record (KBTR)
Temperature  
Mean Temperature 66 °F -  
Max Temperature 82 °F 77 °F 89 °F (1972)
Min Temperature 50 °F 58 °F 36 °F (1909)
Growing Degree Days 16 (Base 50)    
Moisture  
Dew Point 64 °F    
Average Humidity 84    
Maximum Humidity 95    
Minimum Humidity 65    
Precipitation  
Precipitation 0.37 in - - ()
Sea Level Pressure  
Sea Level Pressure 29.83 in    
Wind  
Wind Speed 10 mph (SSW)    
Max Wind Speed 26 mph    
Max Gust Speed 39 mph    
Visibility 9 miles    
Events Rain , Thunderstorm    
Averages and records for this station are not official NWS values.
T = Trace of Precipitation, MM = Missing Value Source: NWS Daily Summary

Daily Weather History Graph

Daily Weather History Graph

Search for Another Location

Airport or City:

Astronomy

Apr. 14, 2014 Rise Set
Actual Time 6:39 AM CDT 7:33 PM CDT
Civil Twilight 6:14 AM CDT 7:58 PM CDT
Nautical Twilight 5:45 AM CDT 8:27 PM CDT
Astronomical Twilight 5:15 AM CDT 8:57 PM CDT
Moon 7:13 PM CDT (4/14) 6:08 AM CDT (4/14)
Length of Visible Light 13h 43m
Length of Day
12h 53m
Full, 100% of the Moon is Illuminated
Apr 14
Full
Apr 15
Full
Apr 22
Last Quarter
Apr 29
New
May 6
First Quarter

Hourly Weather History & Observations

Time (CDT) Temp. Heat Index Dew Point Humidity Pressure Visibility Wind Dir Wind Speed Gust Speed Precip Events Conditions
12:15 AM 71.6 °F - 66.2 °F 83% 29.83 in 10.0 mi SSE 12.7 mph 18.4 mph N/A   Overcast
12:35 AM 72.0 °F - 66.6 °F 83% 29.83 in 10.0 mi SSE 11.5 mph 16.1 mph N/A   Overcast
12:55 AM 72.1 °F - 66.9 °F 84% 29.83 in 10.0 mi SSE 9.2 mph - N/A   Overcast
1:15 AM 72.0 °F - 66.6 °F 83% 29.84 in 10.0 mi SSE 9.2 mph - N/A   Overcast
1:35 AM 71.8 °F - 67.1 °F 85% 29.82 in 10.0 mi SSE 10.4 mph - N/A   Overcast
1:55 AM 71.6 °F - 67.5 °F 87% 29.81 in 10.0 mi North - - N/A   Overcast
2:15 AM 71.6 °F - 67.6 °F 87% 29.81 in 10.0 mi SSE 5.8 mph - N/A   Overcast
2:35 AM 71.6 °F - 68.0 °F 88% 29.81 in 10.0 mi SSE 5.8 mph - N/A   Overcast
2:55 AM 71.6 °F - 68.0 °F 88% 29.80 in 10.0 mi SSE 8.1 mph - N/A   Overcast
3:15 AM 72.1 °F - 67.6 °F 86% 29.79 in 10.0 mi SSE 8.1 mph - N/A   Overcast
3:35 AM 72.7 °F - 68.5 °F 87% 29.79 in 10.0 mi SSE 8.1 mph - N/A   Overcast
3:55 AM 72.9 °F - 68.7 °F 87% 29.80 in 10.0 mi South 6.9 mph - N/A   Overcast
4:15 AM 72.9 °F - 68.9 °F 87% 29.80 in 10.0 mi South 4.6 mph - N/A   Overcast
4:35 AM 72.9 °F - 68.9 °F 87% 29.80 in 10.0 mi South 4.6 mph - N/A   Overcast
4:55 AM 73.0 °F - 68.9 °F 87% 29.79 in 10.0 mi South 8.1 mph - N/A   Overcast
5:15 AM 73.4 °F - 68.9 °F 86% 29.79 in 10.0 mi South 6.9 mph - N/A   Overcast
5:35 AM 73.4 °F - 68.9 °F 86% 29.79 in 10.0 mi South 6.9 mph 17.3 mph N/A   Overcast
5:55 AM 73.4 °F - 68.9 °F 86% 29.79 in 10.0 mi South 9.2 mph 16.1 mph N/A   Overcast
6:15 AM 73.4 °F - 69.1 °F 86% 29.80 in 10.0 mi South 6.9 mph 16.1 mph N/A   Overcast
6:35 AM 73.0 °F - 69.1 °F 87% 29.80 in 10.0 mi South 3.5 mph - N/A   Overcast
6:55 AM 73.0 °F - 69.1 °F 87% 29.81 in 10.0 mi South 6.9 mph - N/A   Overcast
7:15 AM 73.0 °F - 69.3 °F 88% 29.82 in 10.0 mi South 4.6 mph 17.3 mph N/A   Overcast
7:35 AM 73.4 °F - 69.3 °F 87% 29.82 in 10.0 mi South 6.9 mph - N/A   Overcast
7:55 AM 73.6 °F - 69.4 °F 87% 29.83 in 7.0 mi SSE 6.9 mph - N/A   Overcast
8:15 AM 73.6 °F - 69.6 °F 87% 29.84 in 10.0 mi South 3.5 mph 16.1 mph N/A   Overcast
8:35 AM 74.1 °F - 69.8 °F 86% 29.85 in 10.0 mi South 8.1 mph - N/A   Overcast
8:55 AM 74.5 °F - 70.0 °F 86% 29.86 in 10.0 mi South 4.6 mph - N/A   Overcast
9:15 AM 74.5 °F - 69.8 °F 85% 29.87 in 10.0 mi South 4.6 mph - N/A   Overcast
9:35 AM 75.2 °F - 69.4 °F 82% 29.86 in 10.0 mi South 3.5 mph - N/A   Overcast
9:55 AM 75.6 °F - 69.8 °F 82% 29.87 in 10.0 mi South 6.9 mph - N/A   Overcast
10:15 AM 76.1 °F - 69.4 °F 80% 29.87 in 10.0 mi South 6.9 mph - N/A   Overcast
10:35 AM 76.6 °F - 70.0 °F 80% 29.87 in 10.0 mi South 10.4 mph 18.4 mph N/A   Overcast
10:55 AM 77.0 °F - 69.8 °F 78% 29.88 in 10.0 mi South 9.2 mph 20.7 mph N/A   Overcast
11:15 AM 76.5 °F - 69.4 °F 79% 29.88 in 10.0 mi South 8.1 mph - N/A   Overcast
11:35 AM 78.1 °F - 69.6 °F 75% 29.87 in 10.0 mi South 15.0 mph 24.2 mph N/A   Overcast
11:55 AM 79.5 °F - 70.0 °F 72% 29.86 in 10.0 mi SSE 8.1 mph - N/A   Mostly Cloudy
12:35 PM 80.6 °F 83.6 °F 69.3 °F 68% 29.84 in 10.0 mi South 11.5 mph - N/A   Mostly Cloudy
12:55 PM 81.7 °F 85.1 °F 69.4 °F 66% 29.82 in 10.0 mi South 11.5 mph 18.4 mph N/A   Mostly Cloudy
1:15 PM 81.0 °F 84.1 °F 68.9 °F 67% 29.80 in 10.0 mi SSE 12.7 mph 18.4 mph N/A   Scattered Clouds
1:35 PM 81.0 °F 84.1 °F 68.9 °F 67% 29.79 in 10.0 mi SSE 11.5 mph - N/A   Scattered Clouds
1:55 PM 81.0 °F 83.8 °F 68.2 °F 65% 29.78 in 10.0 mi SSE 11.5 mph - N/A   Scattered Clouds
2:15 PM 80.2 °F 82.8 °F 68.0 °F 66% 29.77 in 10.0 mi South 11.5 mph 19.6 mph N/A   Scattered Clouds
2:35 PM 80.6 °F 83.2 °F 68.0 °F 65% 29.76 in 10.0 mi South 6.9 mph - N/A   Scattered Clouds
3:15 PM 80.2 °F 82.7 °F 67.6 °F 65% 29.76 in 10.0 mi SSW 10.4 mph 18.4 mph N/A   Overcast
3:35 PM 79.9 °F - 67.8 °F 66% 29.74 in 10.0 mi North - - N/A   Mostly Cloudy
3:55 PM 79.2 °F - 68.4 °F 69% 29.72 in 10.0 mi SSW 5.8 mph - N/A Rain , Thunderstorm Light Thunderstorms and Rain
4:15 PM 78.8 °F - 68.9 °F 72% 29.72 in 10.0 mi North - - N/A Rain , Thunderstorm Light Thunderstorms and Rain
4:35 PM 73.9 °F - 70.3 °F 88% 29.74 in 7.0 mi NNW 9.2 mph - 0.03 in Rain , Thunderstorm Thunderstorms and Rain
4:55 PM 72.1 °F - 69.8 °F 92% 29.74 in 2.5 mi WNW 5.8 mph 21.9 mph 0.08 in Rain Rain
5:15 PM 63.3 °F - 59.7 °F 88% 29.79 in 10.0 mi NW 26.5 mph 39.1 mph 0.04 in Rain , Thunderstorm Light Thunderstorms and Rain
5:35 PM 61.7 °F - 58.1 °F 88% 29.80 in 5.0 mi NNW 25.3 mph 33.4 mph 0.07 in Rain Heavy Rain
5:55 PM 60.8 °F - 57.7 °F 90% 29.82 in 10.0 mi NNW 12.7 mph 33.4 mph 0.10 in Rain , Thunderstorm Light Thunderstorms and Rain
6:15 PM 60.6 °F - 57.9 °F 91% 29.81 in 10.0 mi NNW 15.0 mph 20.7 mph 0.02 in Rain Light Rain
6:35 PM 60.1 °F - 57.4 °F 91% 29.82 in 10.0 mi NNW 12.7 mph 24.2 mph 0.04 in   Overcast
6:55 PM 59.0 °F - 56.5 °F 91% 29.82 in 10.0 mi NNW 17.3 mph 24.2 mph 0.05 in   Overcast
7:15 PM 58.3 °F - 56.3 °F 93% 29.83 in 10.0 mi NNW 15.0 mph 25.3 mph N/A Rain Light Rain
7:35 PM 57.7 °F - 56.3 °F 95% 29.82 in 10.0 mi North 10.4 mph 16.1 mph 0.01 in Rain Rain
7:55 PM 57.2 °F - 55.8 °F 95% 29.83 in 5.0 mi NNW 18.4 mph 23.0 mph 0.02 in Rain , Thunderstorm Rain
8:15 PM 56.8 °F - 55.2 °F 94% 29.88 in 7.0 mi WNW 18.4 mph 24.2 mph 0.01 in Rain Heavy Rain
8:35 PM 55.9 °F - 54.1 °F 94% 29.87 in 5.0 mi NW 16.1 mph 24.2 mph 0.03 in Rain , Thunderstorm Thunderstorms and Rain
8:55 PM 54.1 °F - 52.5 °F 94% 29.84 in 7.0 mi NNW 23.0 mph 33.4 mph 0.04 in Rain , Thunderstorm Rain
9:15 PM 52.7 °F - 50.2 °F 91% 29.89 in 10.0 mi NNW 18.4 mph 29.9 mph 0.02 in Rain Rain
9:35 PM 52.0 °F - 49.8 °F 92% 29.93 in 10.0 mi NW 18.4 mph 27.6 mph 0.03 in Rain Light Rain
9:55 PM 51.8 °F - 49.5 °F 92% 29.95 in 10.0 mi NW 17.3 mph 26.5 mph 0.04 in Rain Light Rain
10:15 PM 51.6 °F - 48.4 °F 89% 29.98 in 10.0 mi NW 10.4 mph 24.2 mph N/A   Overcast
10:35 PM 50.9 °F - 48.6 °F 92% 29.96 in 10.0 mi NW 18.4 mph 28.8 mph 0.01 in Thunderstorm Overcast
10:55 PM 50.4 °F - 48.2 °F 92% 29.99 in 5.0 mi NW 15.0 mph 27.6 mph 0.02 in   Light Drizzle
11:15 PM 50.0 °F - 47.8 °F 92% 30.00 in 7.0 mi NW 12.7 mph 25.3 mph 0.01 in   Overcast
11:35 PM 50.0 °F - 47.5 °F 91% 30.00 in 10.0 mi NNW 16.1 mph 21.9 mph 0.02 in Rain Rain